Weather History for Johnstown, PA

Change the Weather History Date:

Friday, November 1, 2013

  Actual Average Record
Temperature  
Mean Temperature 53 °F 45 °F  
Max Temperature 61 °F 52 °F 82 °F (1971)
Min Temperature 45 °F 38 °F 20 °F (1925)
Degree Days  
Heating Degree Days 12 20  
Month to date heating degree days 12 20  
Since 1 July heating degree days 721 713  
Cooling Degree Days 0 0  
Month to date cooling degree days 0 0  
Year to date cooling degree days 393 382  
Growing Degree Days 4 (Base 50)    
Moisture  
Dew Point 46 °F    
Average Humidity 70    
Maximum Humidity 89    
Minimum Humidity 51    
Precipitation  
Precipitation 0.19 in 0.12 in 1.32 in (1970)
Month to date precipitation 0.19 0.12  
Year to date precipitation 31.84 27.47  
Sea Level Pressure  
Sea Level Pressure 29.60 in    
Wind  
Wind Speed 14 mph (WSW)    
Max Wind Speed 37 mph    
Max Gust Speed 48 mph    
Visibility 9 miles    
Events Rain    
T = Trace of Precipitation, MM = Missing Value Source: NWS Daily Summary

Daily Weather History Graph

Daily Weather History Graph

Search for Another Location

Airport:

Trip Planner

Search our weather history database for the weather conditions in past years. The results will help you decide how hot, cold, wet, or windy it might be!

Date:

Astronomy

Nov. 01, 2013 Rise Set
Actual Time 7:45 AM EDT 6:12 PM EDT
Civil Twilight 7:16 AM EDT 6:40 PM EDT
Nautical Twilight 6:44 AM EDT 7:12 PM EDT
Astronomical Twilight 6:13 AM EDT 7:44 PM EDT
Moon 5:35 AM EDT (11/1) 5:04 PM EDT (11/1)
Length of Visible Light 11h 23m
Length of Day
10h 26m
Waning Crescent, 4% of the Moon is Illuminated
Nov 1
Waning Crescent
Nov 3
New
Nov 10
First Quarter
Nov 17
Full
Nov 25
Last Quarter

Hourly Weather History & Observations

Time (EDT) Temp. Dew Point Humidity Pressure Visibility Wind Dir Wind Speed Gust Speed Precip Events Conditions
12:54 AM 57.0 °F 52.0 °F 83% 29.55 in 10.0 mi SSE 18.4 mph 27.6 mph 0.01 in   Overcast
1:54 AM 57.9 °F 53.1 °F 84% 29.51 in 10.0 mi South 23.0 mph 38.0 mph 0.00 in Rain Light Rain
2:54 AM 59.0 °F 53.1 °F 81% 29.47 in 10.0 mi South 24.2 mph 35.7 mph 0.00 in   Overcast
3:54 AM 60.1 °F 53.1 °F 78% 29.43 in 10.0 mi South 26.5 mph 36.8 mph N/A   Overcast
4:42 AM 59.0 °F 53.6 °F 82% 29.52 in 1.5 mi West 36.8 mph 48.3 mph 0.13 in Rain Rain
4:50 AM 53.6 °F 50.0 °F 88% 29.54 in 1.2 mi West 20.7 mph 48.3 mph 0.14 in Rain Light Rain
4:52 AM 53.6 °F 50.0 °F 88% 29.54 in 4.0 mi West 20.7 mph 34.5 mph 0.14 in Rain Light Rain
4:54 AM 54.0 °F 50.0 °F 86% 29.52 in 8.0 mi West 19.6 mph 33.4 mph 0.14 in Rain Light Rain
5:01 AM 53.6 °F 50.0 °F 88% 29.55 in 10.0 mi West 16.1 mph 32.2 mph 0.00 in Rain Light Rain
5:12 AM 53.6 °F 50.0 °F 88% 29.56 in 10.0 mi WSW 21.9 mph 33.4 mph 0.00 in Rain Light Rain
5:45 AM 53.6 °F 50.0 °F 88% 29.54 in 10.0 mi WSW 18.4 mph 25.3 mph 0.02 in Rain Light Rain
5:54 AM 54.0 °F 50.0 °F 86% 29.52 in 10.0 mi WSW 18.4 mph 29.9 mph 0.02 in   Overcast
6:54 AM 53.1 °F 48.0 °F 83% 29.54 in 10.0 mi SW 19.6 mph 25.3 mph 0.01 in Rain Light Rain
7:49 AM 51.8 °F 48.2 °F 88% 29.59 in 10.0 mi WSW 19.6 mph 29.9 mph 0.02 in Rain Light Rain
7:54 AM 51.1 °F 48.0 °F 89% 29.58 in 10.0 mi WSW 16.1 mph 29.9 mph 0.02 in Rain Light Rain
8:54 AM 52.0 °F 48.9 °F 89% 29.61 in 10.0 mi WSW 15.0 mph 24.2 mph 0.00 in   Overcast
9:54 AM 54.0 °F 46.9 °F 77% 29.62 in 10.0 mi WSW 15.0 mph 31.1 mph N/A   Overcast
10:47 AM 53.6 °F 46.4 °F 77% 29.62 in 10.0 mi West 19.6 mph 40.3 mph N/A   Mostly Cloudy
10:54 AM 54.0 °F 46.0 °F 75% 29.62 in 10.0 mi West 17.3 mph 28.8 mph N/A   Mostly Cloudy
11:38 AM 55.4 °F 44.6 °F 67% 29.63 in 10.0 mi WSW 18.4 mph 36.8 mph N/A   Overcast
11:54 AM 55.9 °F 44.1 °F 64% 29.63 in 10.0 mi West 16.1 mph 31.1 mph N/A   Mostly Cloudy
12:54 PM 55.0 °F 41.0 °F 59% 29.64 in 10.0 mi West 19.6 mph 27.6 mph N/A   Mostly Cloudy
1:54 PM 57.0 °F 41.0 °F 55% 29.63 in 10.0 mi West 15.0 mph 27.6 mph N/A   Scattered Clouds
2:54 PM 57.9 °F 39.9 °F 51% 29.62 in 10.0 mi West 16.1 mph 24.2 mph N/A   Scattered Clouds
3:54 PM 57.0 °F 39.0 °F 51% 29.63 in 10.0 mi West 16.1 mph 21.9 mph N/A   Clear
4:54 PM 57.0 °F 39.9 °F 53% 29.65 in 10.0 mi WSW 13.8 mph - N/A   Partly Cloudy
5:54 PM 55.0 °F 39.0 °F 55% 29.66 in 10.0 mi West 9.2 mph - N/A   Scattered Clouds
6:54 PM 54.0 °F 39.0 °F 57% 29.68 in 10.0 mi West 6.9 mph - N/A   Mostly Cloudy
7:54 PM 52.0 °F 39.9 °F 63% 29.71 in 10.0 mi West 6.9 mph - N/A   Scattered Clouds
8:54 PM 51.1 °F 39.0 °F 63% 29.72 in 10.0 mi West 6.9 mph - N/A   Scattered Clouds
9:54 PM 50.0 °F 39.0 °F 66% 29.71 in 10.0 mi West 9.2 mph - N/A   Clear
10:54 PM 48.0 °F 39.0 °F 71% 29.72 in 10.0 mi SSW 4.6 mph - N/A   Clear
11:54 PM 46.9 °F 37.9 °F 71% 29.70 in 10.0 mi Calm Calm - N/A   Clear